Location: *
(42.3442°N, 9.2072°E)
Time: 16:08:27
(UTC+00:00)

Cosmos 2344 - Pass Details

Date: 09 April 2020
Orbit: 1251 x 2991 km, 63.3° (Epoch: 27 May)

Event Time Altitude Azimuth Distance (km) Brightness Sun altitude
Rises 22:25:23 0° 323° (NW) 4,730 7.4 -37.9°
Reaches altitude 10° 22:28:03 10° 322° (NW) 3,899 6.8 -38.0°
Maximum altitude 22:38:04 81° 238° (WSW) 2,082 4.4 -38.5°
Enters shadow 22:38:43 78° 201° (SSW) 2,121 4.4 -38.6°
